Tekamah, NE

6:13 PM CDT on April 24, 2018 (GMT -0500)
Tekamah

Weather History for KTQE - May, 2012

Change the Weather History Date:

Friday, May 4, 2012

  Actual Average Record
Temperature  
Mean Temperature 76 °F -  
Max Temperature 89 °F 71 °F 94 °F (1949)
Min Temperature 63 °F 46 °F 28 °F (2005)
Cooling Degree Days 10    
Growing Degree Days 26 (Base 50)    
Moisture  
Dew Point 64 °F    
Average Humidity 71    
Maximum Humidity 90    
Minimum Humidity 48    
Precipitation  
Precipitation 0.00 in - - ()
Sea Level Pressure  
Sea Level Pressure 29.77 in    
Wind  
Wind Speed 7 mph (ENE)    
Max Wind Speed 18 mph    
Max Gust Speed 20 mph    
Visibility 7 miles    
Events      
Averages and records for this station are not official NWS values.
T = Trace of Precipitation, MM = Missing Value Source: NWS Daily Summary

Daily Weather History Graph

Daily Weather History Graph

Search for Another Location

Airport or City:

Astronomy

May. 04, 2012 Rise Set
Actual Time 6:16 AM CDT 8:26 PM CDT
Civil Twilight 5:46 AM CDT 8:57 PM CDT
Nautical Twilight 5:08 AM CDT 9:35 PM CDT
Astronomical Twilight 4:27 AM CDT 10:17 PM CDT
Moon 7:05 PM CDT (5/4) 4:59 AM CDT (5/4)
Length of Visible Light 15h 11m
Length of Day
14h 10m
Waxing Gibbous, 97% of the Moon is Illuminated
May 4
Waxing Gibbous
May 5
Full
May 12
Last Quarter
May 20
New
May 28
First Quarter

Hourly Weather History & Observations

Time (CDT) Temp. Heat Index Dew Point Humidity Pressure Visibility Wind Dir Wind Speed Gust Speed Precip Events Conditions
12:54 AM 68.0 °F - 64.0 °F 87% 29.78 in 6.0 mi WNW 4.6 mph - N/A   Clear
1:54 AM 68.0 °F - 64.0 °F 87% 29.78 in 5.0 mi Calm Calm - N/A   Clear
2:54 AM 64.0 °F - 61.0 °F 90% 29.78 in 5.0 mi NNW 6.9 mph - N/A   Clear
3:52 AM 66.2 °F - 62.6 °F 88% 29.82 in 5.0 mi North 5.8 mph - N/A   Mostly Cloudy
3:54 AM 66.0 °F - 63.0 °F 90% 29.78 in 6.0 mi North 5.8 mph - N/A   Mostly Cloudy
4:54 AM 66.0 °F - 63.0 °F 90% 29.80 in 6.0 mi North 5.8 mph - N/A   Mostly Cloudy
5:01 AM 66.2 °F - 62.6 °F 88% 29.83 in 6.0 mi North 6.9 mph - N/A   Scattered Clouds
5:54 AM 64.0 °F - 61.0 °F 90% 29.80 in 4.0 mi Calm Calm - N/A   Clear
6:54 AM 63.0 °F - 60.1 °F 90% 29.81 in 3.0 mi North 4.6 mph - N/A   Clear
7:54 AM 66.9 °F - 63.0 °F 87% 29.79 in 4.0 mi North 3.5 mph - N/A   Mostly Cloudy
8:54 AM 72.0 °F - 64.9 °F 78% 29.79 in 5.0 mi NE 6.9 mph - N/A   Haze
9:34 AM 75.2 °F - 66.2 °F 73% 29.82 in 4.0 mi ESE 3.5 mph - N/A   Haze
9:54 AM 77.0 °F - 66.9 °F 71% 29.79 in 5.0 mi SE 5.8 mph - N/A   Haze
10:54 AM 80.1 °F 82.3 °F 66.9 °F 64% 29.78 in 8.0 mi SE 13.8 mph - N/A   Mostly Cloudy
11:18 AM 80.6 °F 82.7 °F 66.2 °F 61% 29.81 in 8.0 mi SE 15.0 mph - N/A   Scattered Clouds
11:54 AM 81.0 °F 83.3 °F 66.9 °F 62% 29.78 in 8.0 mi SE 10.4 mph - N/A   Partly Cloudy
12:54 PM 84.9 °F 87.6 °F 66.9 °F 55% 29.76 in 9.0 mi SSE 12.7 mph - N/A   Clear
1:54 PM 86.0 °F 89.4 °F 68.0 °F 55% 29.75 in 8.0 mi SSE 11.5 mph 19.6 mph N/A   Scattered Clouds
2:54 PM 88.0 °F 91.4 °F 68.0 °F 51% 29.72 in 5.0 mi South 13.8 mph - N/A   Haze
3:54 PM 88.0 °F 90.3 °F 66.0 °F 48% 29.70 in 7.0 mi SSW 10.4 mph - N/A   Mostly Cloudy
4:54 PM 88.0 °F 90.3 °F 66.0 °F 48% 29.71 in 7.0 mi SSW 9.2 mph - N/A   Mostly Cloudy
5:54 PM 88.0 °F 90.7 °F 66.9 °F 49% 29.72 in 7.0 mi SSE 6.9 mph - N/A   Overcast
6:38 PM 78.8 °F - 60.8 °F 54% 29.76 in 10.0 mi North 18.4 mph - N/A   Scattered Clouds
6:54 PM 77.0 °F - 60.1 °F 56% 29.72 in 10.0 mi North 13.8 mph - N/A   Clear
7:54 PM 77.0 °F - 62.1 °F 60% 29.76 in 10.0 mi NNE 15.0 mph - N/A   Clear
8:54 PM 75.0 °F - 62.1 °F 64% 29.77 in 10.0 mi ENE 12.7 mph - N/A   Partly Cloudy
9:54 PM 73.0 °F - 61.0 °F 66% 29.75 in 8.0 mi ENE 10.4 mph - N/A   Clear
10:54 PM 72.0 °F - 63.0 °F 73% 29.75 in 10.0 mi NE 3.5 mph - N/A   Clear
11:54 PM 71.1 °F - 63.0 °F 75% 29.79 in 10.0 mi NE 6.9 mph - N/A   Scattered Clouds